CANX-5

Last updated on Thu Nov 21 2024 00:03:39 GMT+0000 (Coordinated Universal Time)

1 40056U 14034D 24325.52311273 .00002460 00000+0 33868-3 0 9999 2 40056 98.3796 166.8286 0014293 54.3488 305.9050 14.79182580550464
UTC large
Height (km)
Speed (km/s)
/
Latitude / Longitude
Inclination (degrees)
Orbital Period (minutes)
Azimuth
Elevation
Range (km)
Doppler Factor

Next 0 passes for location: London (51.5072 / 0.1276)

Sorry there are no passes over London.